Wind_Speed
11 12 16 16 19 20 21 24 29 31 31 29 29 30 32 36 38 40 44 47 50 53 56 57 58 59 58 58 57 59 61 62 65 68 70 72 72 74 74 75 78 80 80 84
15 18 19 19 21 22 22 20 6 35 29 29 30 34 37 42 44 48 51 52 54 58 60 60 61 62 63 63 66 59 62 66 71 72 75 78 80 80 80 82 84 85 89 89
17 19 21 22 23 25 26 25 23 29 29 32 37 38 44 46 50 56 57 57 61 61 62 63 65 65 67 68 70 73 75 77 78 81 82 83 86 87 88 89 90 91 93 94
19 20 23 25 27 29 29 31 32 33 36 39 37 44 29 43 54 57 62 63 67 67 68 69 70 72 74 75 78 80 82 85 85 86 88 88 89 89 89 89 90 90 90 90
19 22 26 28 29 32 34 35 36 36 36 39 41 38 39 45 42 58 65 68 69 73 75 75 77 81 83 84 84 84 84 84 81 80 81 83 84 84 85 85 84 85 85 85
24 25 28 30 32 35 37 38 39 39 39 39 41 46 44 49 54 58 65 70 73 76 78 80 82 83 87 88 86 83 79 79 79 76 75 75 76 76 75 75 74 74 73 72
27 29 30 32 36 36 38 41 40 44 47 50 45 51 58 60 61 65 68 73 76 79 81 84 86 85 82 80 78 77 72 68 67 67 68 67 65 64 65 64 63 62 61 62
32 29 34 37 39 43 45 45 45 47 49 49 54 51 58 65 68 71 74 77 81 84 84 84 84 83 81 77 71 69 67 63 63 64 62 59 58 57 57 57 56 56 55 55
36 34 38 42 42 45 50 50 51 53 54 55 58 56 63 71 73 75 78 83 83 82 84 84 81 79 76 72 65 64 63 61 57 54 52 52 53 51 50 50 49 50 49 50
37 40 37 42 48 48 49 52 55 56 56 58 65 65 68 70 72 77 80 80 80 82 79 77 75 71 66 62 60 56 51 48 46 46 46 44 44 45 44 45 45 46 46 44
41 43 43 43 48 51 54 55 56 60 63 62 63 63 67 72 75 76 76 79 81 79 76 72 65 62 58 51 44 39 37 36 36 37 38 39 39 38 36 34 32 31 30 27
43 45 48 47 49 54 54 58 58 57 60 62 64 61 68 70 71 74 75 77 77 73 68 63 58 53 44 37 31 30 30 31 32 34 35 34 30 27 24 23 23 22 21 18
45 45 50 50 50 51 54 55 59 62 63 63 65 63 66 69 71 73 76 72 71 65 62 57 49 39 31 27 27 30 31 33 33 31 28 25 23 23 22 20 19 17 14 13
45 48 49 50 53 54 56 60 62 64 63 63 61 65 65 66 71 72 72 72 64 59 52 43 34 27 24 26 29 31 34 32 29 25 21 20 19 18 16 15 19 23 23 21
45 48 52 54 57 59 61 62 64 62 60 59 61 64 63 67 70 70 71 66 59 51 40 31 25 24 28 30 32 32 28 25 23 22 23 23 25 26 28 32 32 30 29 28
49 52 55 59 62 63 63 62 59 56 54 56 59 57 61 66 68 67 65 59 50 39 29 24 26 30 32 33 32 26 20 19 23 25 30 32 37 39 40 38 39 41 44 46
55 58 62 62 62 62 61 55 51 51 51 54 54 57 63 62 62 61 56 46 39 28 24 25 29 33 34 35 28 19 17 20 26 30 33 33 34 35 37 39 41 44 47 50
57 59 58 58 58 55 50 46 45 47 50 50 51 57 60 58 58 58 53 40 27 22 25 28 32 34 36 29 20 15 18 23 26 27 29 29 32 38 41 42 44 46 48 49
58 55 55 55 51 44 42 42 43 47 47 48 52 57 56 53 49 50 46 36 23 22 26 29 33 34 32 22 15 14 19 20 25 27 28 33 36 35 36 39 43 49 54 57
53 51 51 48 43 37 39 40 40 43 46 48 52 54 52 50 50 45 41 31 23 21 24 28 32 33 27 15 11 12 17 21 22 27 29 30 31 36 44 50 51 51 52 54
48 47 43 40 38 37 37 35 39 43 44 48 52 52 50 48 50 48 45 30 25 19 22 25 30 31 22 11 10 12 19 19 21 27 28 30 39 45 46 46 48 49 49 51
44 38 38 36 36 30 34 36 39 42 44 48 50 49 47 47 47 47 40 30 24 19 19 21 26 29 20 9 10 9 17 24 28 27 31 37 41 42 43 46 46 47 49 49
35 35 34 31 32 31 35 36 39 41 44 47 48 46 46 47 47 45 35 29 20 16 16 18 23 25 15 10 15 12 21 28 26 29 36 39 39 39 41 44 46 46 45 45
32 31 29 31 28 34 33 37 39 41 43 46 45 45 45 46 46 43 35 27 19 9 10 14 20 20 10 12 19 21 27 26 27 32 35 36 37 39 40 42 42 42 41 40
27 27 29 28 31 32 35 38 39 41 43 44 44 44 45 46 44 43 34 19 11 5 6 12 17 12 8 13 20 24 24 26 31 34 34 34 36 38 38 37 37 37 36 36
28 27 24 29 32 35 37 37 40 41 43 44 43 44 43 44 42 42 30 17 9 7 8 12 16 8 11 14 22 25 24 25 31 30 32 33 35 35 35 33 33 32 31 31
Wind_Direction
315 311 306 308 317 319 316 313 313 307 301 298 298 297 299 297 297 298 300 304 307 307 309 308 305 303 301 298 296 292 291 289 288 287 287 285 283 281 279 277 275 275 274 273
311 318 315 315 323 319 314 317 310 299 304 303 301 301 303 304 303 303 303 305 307 308 309 310 308 304 302 299 296 290 290 289 288 287 286 285 283 281 280 279 278 277 276 276
312 314 313 311 313 314 317 313 308 304 305 308 307 307 310 308 306 305 305 307 307 310 310 308 307 306 304 302 300 298 297 294 291 288 286 284 283 281 280 279 277 275 275 275
313 312 312 313 315 316 317 319 316 313 311 309 310 308 305 306 317 305 307 310 311 311 311 310 309 306 304 302 298 296 294 292 291 289 287 285 284 282 281 280 279 278 277 276
314 312 313 315 319 323 321 316 313 312 309 310 314 311 304 301 287 303 310 309 311 311 311 311 308 307 305 304 301 298 296 294 292 290 287 286 285 285 283 283 283 282 282 281
309 310 313 316 317 318 316 313 317 313 307 304 305 304 306 302 303 304 307 308 310 311 311 309 307 305 303 302 301 300 299 297 295 293 291 290 289 288 287 286 285 283 282 280
304 306 307 309 311 313 314 314 313 317 317 311 308 311 307 307 308 308 309 308 308 309 308 306 305 305 305 303 302 301 298 293 293 293 292 291 291 291 289 288 287 285 283 281
304 306 306 309 313 314 314 315 315 316 314 313 313 314 308 306 309 309 308 308 308 308 308 308 308 308 308 306 304 301 297 298 296 296 293 294 294 293 292 289 288 286 285 283
304 306 307 309 311 315 314 316 316 316 314 312 309 312 310 309 310 309 309 309 311 311 312 311 311 310 308 307 306 302 301 299 298 298 299 297 296 294 293 290 288 287 284 282
298 302 307 311 311 312 311 312 313 313 311 311 310 310 308 309 310 310 312 312 313 313 313 313 313 313 310 309 306 304 302 300 298 298 299 299 297 297 295 293 292 290 289 288
301 304 306 307 307 308 309 310 309 309 309 310 311 313 311 312 312 313 315 316 316 317 315 316 317 313 315 314 313 313 311 308 306 305 305 304 305 304 302 300 298 297 299 299
300 304 304 308 307 307 307 308 310 312 312 312 313 314 312 313 316 317 318 318 318 319 320 320 322 321 322 325 326 324 323 320 317 316 316 316 316 318 320 320 319 321 325 321
301 302 303 302 302 305 309 311 312 313 314 315 315 316 317 319 320 320 319 322 323 324 324 325 327 329 334 337 337 335 331 328 329 329 329 330 333 337 339 341 339 351 1 7
299 301 302 304 307 308 309 310 311 312 314 315 316 317 319 320 322 323 325 327 329 328 329 331 337 343 349 345 343 339 338 342 344 347 350 355 1 8 18 25 27 33 37 42
300 301 302 305 306 307 307 308 310 314 315 317 319 321 322 324 325 328 327 330 333 335 339 345 356 359 350 348 348 346 348 360 12 28 40 48 52 57 60 60 54 52 56 66
303 303 303 303 303 304 307 310 312 314 316 317 320 321 324 327 329 330 331 335 339 345 352 6 2 355 349 351 354 354 13 38 51 60 65 67 68 69 72 73 73 73 75 79
303 302 301 303 305 308 309 313 313 315 317 319 321 325 328 331 329 331 338 340 346 355 5 359 357 352 352 355 2 24 56 68 77 80 81 78 77 79 79 80 82 82 84 87
303 303 304 305 307 311 310 311 315 316 318 320 323 327 330 333 334 337 339 346 346 353 354 352 355 355 355 1 21 58 79 86 92 89 86 86 87 90 91 91 90 89 89 90
303 303 303 306 310 311 310 315 316 316 319 321 325 329 329 332 338 338 336 343 336 342 349 350 354 357 359 8 45 81 94 97 97 94 92 95 97 93 90 89 90 92 93 94
301 301 303 307 310 311 310 314 312 315 316 321 324 328 329 334 336 337 335 339 327 332 341 348 352 359 1 23 66 94 103 105 99 100 100 99 93 92 95 97 97 96 95 95
299 300 303 305 308 311 312 309 310 312 316 320 326 329 331 336 338 343 333 333 332 322 331 345 351 360 2 37 84 112 107 102 105 110 103 99 103 104 102 98 99 99 98 97
298 298 300 304 308 311 306 308 309 312 317 321 327 330 332 336 338 340 333 324 327 313 326 340 349 356 2 57 102 115 116 114 117 111 109 110 108 104 104 105 103 102 100 98
296 299 301 302 303 302 305 305 308 312 315 323 329 332 335 337 337 342 333 324 318 310 318 337 348 356 6 89 112 118 126 125 120 117 118 114 112 109 109 108 106 103 99 97
296 297 298 298 302 301 301 303 307 310 319 326 330 334 334 338 337 344 339 329 317 315 318 339 350 1 32 114 124 134 133 126 125 126 121 118 114 114 112 110 107 103 101 97
298 295 293 298 298 296 301 303 306 314 322 327 329 332 334 339 337 347 347 351 0 3 353 348 355 13 90 117 129 145 135 133 133 128 124 120 120 118 116 113 109 105 100 97
292 293 295 293 293 297 301 304 308 315 322 325 326 330 334 338 339 350 353 9 26 43 12 359 359 73 119 120 138 143 139 139 140 131 127 125 126 123 120 116 113 107 102 103
Height
10867 10866 10864 10862 10860 10859 10859 10857 10854 10850 10844 10839 10833 10827 10824 10819 10815 10811 10805 10799 10793 10786 10778 10770 10762 10753 10747 10739 10733 10726 10721 10715 10709 10702 10695 10688 10683 10677 10673 10670 10663 10659 10657 10650
10865 10862 10861 10858 10856 10855 10854 10854 10852 10845 10837 10832 10826 10821 10816 10809 10804 10799 10792 10787 10781 10773 10764 10756 10747 10739 10731 10724 10715 10712 10706 10698 10688 10683 10676 10666 10659 10654 10650 10643 10640 10637 10627 10626
10863 10861 10858 10856 10854 10850 10846 10845 10844 10837 10831 10825 10819 10816 10809 10803 10794 10786 10780 10773 10766 10761 10752 10744 10732 10724 10715 10707 10698 10689 10682 10674 10669 10657 10652 10645 10635 10629 10624 10618 10614 10610 10605 10602
10859 10857 10854 10851 10848 10844 10841 10836 10832 10828 10823 10817 10816 10808 10807 10794 10784 10773 10768 10759 10750 10742 10734 10724 10714 10705 10695 10687 10677 10668 10659 10649 10642 10632 10623 10615 10607 10600 10594 10589 10584 10579 10579 10574
10855 10852 10849 10846 10843 10839 10834 10829 10825 10821 10817 10812 10807 10804 10805 10790 10778 10763 10757 10744 10737 10724 10715 10705 10694 10681 10671 10663 10652 10642 10633 10622 10614 10605 10596 10586 10579 10573 10566 10561 10557 10552 10548 10544
10850 10847 10844 10841 10838 10834 10829 10824 10819 10814 10810 10806 10800 10791 10789 10780 10772 10761 10747 10733 10722 10710 10699 10687 10676 10667 10653 10640 10626 10616 10609 10597 10586 10579 10571 10563 10556 10549 10543 10537 10533 10528 10524 10519
10846 10844 10840 10837 10832 10830 10824 10817 10812 10804 10797 10788 10791 10780 10767 10760 10753 10743 10734 10721 10709 10697 10685 10671 10657 10645 10634 10621 10607 10593 10584 10575 10568 10559 10552 10543 10537 10531 10524 10517 10511 10505 10502 10499
10840 10841 10834 10830 10825 10819 10812 10807 10801 10797 10790 10783 10774 10771 10759 10746 10738 10730 10718 10705 10694 10681 10665 10649 10638 10621 10607 10596 10587 10573 10560 10555 10548 10541 10532 10527 10519 10512 10506 10499 10493 10488 10484 10480
10833 10832 10827 10821 10817 10811 10802 10796 10791 10785 10778 10771 10764 10760 10744 10734 10725 10712 10700 10687 10675 10660 10644 10628 10615 10600 10586 10575 10566 10553 10544 10536 10529 10524 10517 10510 10504 10496 10490 10484 10479 10473 10467 10462
10828 10823 10823 10816 10806 10803 10798 10791 10782 10775 10770 10764 10747 10745 10734 10725 10712 10698 10684 10669 10655 10642 10627 10613 10597 10583 10568 10559 10548 10537 10529 10523 10516 10510 10505 10498 10491 10483 10476 10470 10464 10458 10452 10446
10819 10815 10812 10808 10801 10794 10787 10780 10775 10767 10758 10750 10742 10731 10719 10707 10696 10682 10669 10652 10636 10622 10607 10593 10581 10567 10556 10544 10535 10527 10519 10513 10507 10501 10494 10487 10480 10473 10465 10458 10452 10446 10441 10435
10810 10807 10801 10798 10792 10782 10779 10771 10764 10757 10746 10736 10729 10720 10707 10695 10683 10667 10656 10639 10622 10608 10592 10577 10566 10552 10543 10535 10528 10520 10514 10507 10500 10492 10485 10478 10470 10463 10457 10451 10445 10439 10434 10428
10804 10800 10790 10787 10786 10778 10766 10759 10752 10743 10734 10724 10712 10709 10694 10679 10668 10655 10638 10626 10610 10592 10578 10564 10555 10545 10538 10531 10524 10517 10509 10501 10493 10485 10478 10470 10464 10458 10452 10447 10441 10436 10430 10424
10795 10789 10784 10776 10768 10765 10758 10750 10742 10733 10723 10714 10705 10691 10683 10671 10656 10641 10627 10611 10596 10582 10569 10559 10550 10543 10536 10530 10523 10515 10505 10497 10489 10481 10474 10468 10463 10457 10452 10447 10442 10436 10431 10426
10786 10781 10774 10767 10760 10753 10747 10739 10730 10722 10713 10703 10692 10681 10671 10658 10645 10630 10614 10601 10586 10573 10563 10555 10548 10544 10537 10530 10521 10512 10504 10497 10490 10483 10477 10472 10467 10462 10457 10452 10448 10444 10438 10433
10775 10770 10764 10757 10750 10744 10736 10728 10720 10712 10703 10694 10685 10676 10666 10650 10633 10622 10607 10593 10581 10571 10562 10556 10551 10545 10537 10528 10519 10511 10505 10500 10495 10490 10484 10480 10474 10470 10467 10464 10460 10456 10451 10445
10766 10760 10753 10746 10739 10732 10723 10717 10710 10703 10696 10686 10677 10667 10655 10646 10630 10616 10605 10590 10579 10572 10565 10559 10553 10545 10536 10527 10519 10512 10509 10506 10502 10498 10494 10490 10486 10482 10479 10476 10473 10469 10465 10462
10755 10748 10742 10736 10729 10724 10715 10708 10702 10695 10686 10679 10670 10660 10648 10639 10623 10608 10598 10589 10581 10574 10568 10561 10554 10545 10536 10528 10521 10517 10515 10512 10509 10506 10503 10499 10496 10492 10490 10488 10485 10481 10479 10477
10742 10736 10729 10724 10719 10713 10705 10700 10694 10686 10678 10671 10663 10654 10643 10633 10625 10609 10598 10588 10581 10575 10568 10561 10554 10546 10537 10530 10526 10523 10521 10519 10517 10515 10512 10510 10507 10503 10502 10500 10498 10496 10494 10492
10730 10724 10720 10714 10710 10706 10700 10694 10688 10681 10674 10667 10658 10649 10637 10627 10617 10607 10595 10586 10579 10574 10568 10562 10555 10547 10539 10533 10530 10528 10527 10525 10524 10523 10521 10519 10517 10514 10513 10512 10510 10509 10508 10506
10720 10716 10710 10705 10702 10698 10692 10688 10682 10675 10669 10660 10652 10641 10632 10622 10609 10599 10588 10582 10576 10571 10567 10562 10555 10549 10542 10536 10534 10534 10533 10532 10531 10530 10529 10528 10526 10524 10523 10524 10523 10522 10521 10520
10711 10707 10703 10699 10695 10691 10686 10681 10675 10669 10662 10655 10647 10637 10628 10618 10607 10597 10586 10578 10573 10569 10566 10561 10556 10549 10544 10540 10539 10539 10539 10537 10538 10538 10537 10536 10536 10535 10534 10534 10534 10534 10533 10532
10702 10699 10696 10693 10690 10685 10680 10674 10669 10663 10657 10649 10641 10632 10623 10613 10602 10593 10582 10573 10568 10565 10563 10560 10556 10551 10546 10543 10543 10543 10543 10544 10545 10545 10545 10544 10545 10546 10546 10543 10542 10543 10543 10543
10696 10693 10690 10687 10683 10678 10673 10668 10663 10658 10652 10644 10636 10627 10618 10609 10598 10588 10577 10567 10562 10561 10561 10559 10556 10551 10548 10546 10546 10548 10549 10550 10551 10552 10552 10553 10554 10553 10554 10554 10553 10552 10551 10551
10689 10686 10684 10679 10676 10671 10667 10662 10658 10653 10646 10639 10631 10623 10614 10605 10595 10586 10574 10565 10561 10560 10560 10558 10556 10552 10550 10549 10549 10552 10554 10556 10557 10558 10559 10561 10561 10561 10562 10561 10561 10561 10560 10560
10682 10680 10678 10673 10668 10665 10661 10656 10652 10646 10639 10633 10626 10618 10610 10602 10591 10583 10574 10567 10564 10562 10560 10559 10556 10552 10552 10553 10554 10557 10559 10561 10563 10565 10565 10566 10567 10568 10569 10569 10568 10568 10568 10567